User: anonymous   Login
Location: Caltech
(34.1382°N, 118.1253°W)
Time: 03:00:19
(UTC-07:00)
Language:

RS-15 - Orbit

View from above orbital plane
View from above orbital plane
View from above satellite
View from above satellite

Ground track
Ground track

The orbit data is extracted from the following two-line orbital elements,

1 23439U 94085A   15138.20802407 -.00000033  00000-0  28060-3 0  9994
2 23439 064.8152 009.9508 0153190 018.3552 342.2815 11.27563083839778
Epoch (UTC): 18 May 2015 04:59:33
Eccentricity: 0.0153190
inclination: 64.8152°
perigee height: 1894 km
apogee height: 2151 km
right ascension of ascending node: 9.9508°
argument of perigee: 18.3552°
revolutions per day: 11.27563083
mean anomaly at epoch: 342.2815°
orbit number at epoch: 83977

The dashed part of the orbit path shows where the satellite is in the earth's shadow,  

DLR